Terminal Aerodrome Forecast
Issued by NWS

Home | Current Version | Previous Version | Text Only | Print | Product List | Glossary On
Versions: 1 2 3 4 5 6 7 8 9 10 11 12 13 14 15 16 17 18 19 20 21 22 23 24
731
FTUS41 KPBZ 100252 AAA
TAFZZV
TAF AMD
KZZV 100252Z 1003/1024 25008KT 5SM -SN BKN014
     FM101600 28010KT 3SM -SHSN OVC015=

USA.gov is the U.S. government's official web portal to all federal, state and local government web resources and services.